CST,Max TemperatureF,Mean TemperatureF,Min TemperatureF,Max Dew PointF,MeanDew PointF,Min DewpointF,Max Humidity, Mean Humidity, Min Humidity, Max Sea Level PressureIn, Mean Sea Level PressureIn, Min Sea Level PressureIn, Max VisibilityMiles, Mean VisibilityMiles, Min VisibilityMiles, Max Wind SpeedMPH, Mean Wind SpeedMPH, Max Gust SpeedMPH,PrecipitationIn, CloudCover, Events, WindDirDegrees
2013-2-1,30,20,11,14,3,-2,57,48,31,30.49,30.36,30.23,10,10,7,24,14,33,0.00,3,Snow,239
2013-2-2,42,36,30,28,17,12,89,53,39,30.23,30.12,30.06,10,9,1,18,10,29,0.01,6,Snow,222
2013-2-3,35,30,25,32,23,14,96,75,41,30.19,30.07,30.01,10,8,0,17,4,29,0.03,4,Fog-Snow,264
2013-2-4,55,42,29,30,25,18,81,65,36,30.02,29.92,29.79,10,10,10,23,8,,0.00,5,,152
2013-2-5,55,44,32,32,29,27,87,73,41,30.14,29.99,29.89,10,9,7,23,4,,0.00,5,,272
2013-2-6,51,40,29,34,31,27,94,75,41,30.25,30.14,30.08,10,8,2,16,3,,0.00,0,,125
2013-2-7,50,42,35,45,36,32,87,80,58,30.07,30.00,29.88,10,8,3,14,7,25,0.00,5,Rain,104
2013-2-8,41,36,32,37,31,27,88,82,70,30.39,30.24,30.05,10,7,3,18,11,23,0.00,8,,5
2013-2-9,42,37,32,36,30,27,82,75,61,30.38,30.25,30.04,10,10,7,28,9,,0.00,8,Rain,131
2013-2-10,55,48,41,52,39,28,94,75,38,30.04,29.81,29.61,10,8,3,29,14,39,0.10,5,Rain-Thunderstorm,165
2013-2-11,50,42,33,30,26,23,81,54,35,30.16,29.97,29.78,10,10,10,31,20,38,0.00,1,,255
2013-2-12,46,38,30,32,29,25,88,75,43,30.16,30.09,29.95,10,10,7,8,1,,0.00,3,,315
2013-2-13,55,45,35,37,31,21,87,68,26,29.95,29.88,29.81,10,10,10,18,3,,0.00,4,,240
2013-2-14,55,46,37,37,31,24,80,62,31,30.06,29.90,29.81,10,10,10,23,10,24,0.00,2,,246
2013-2-15,44,38,31,28,20,9,71,53,28,30.27,30.18,30.06,10,10,10,21,6,21,0.00,4,Thunderstorm,320
2013-2-16,39,32,24,30,13,5,81,54,26,30.27,30.21,30.17,10,10,10,16,7,,0.00,0,Thunderstorm,303
2013-2-17,46,34,22,25,20,14,85,64,29,30.21,30.10,29.94,10,10,10,18,5,26,0.00,2,Thunderstorm,117
2013-2-18,59,47,35,46,33,25,83,68,59,29.93,29.82,29.61,10,10,6,29,14,38,0.05,4,Rain-Thunderstorm,172
2013-2-19,35,30,26,26,17,9,69,58,44,30.30,30.09,29.91,10,10,10,28,20,34,0.05,3,Thunderstorm,277
2013-2-20,28,24,21,18,11,7,77,58,43,30.42,30.33,30.30,10,10,10,12,5,,0.00,3,Thunderstorm,333
2013-2-21,35,28,21,32,24,16,93,84,65,30.35,30.10,29.83,10,7,0,23,6,34,0.00,6,Snow,87
2013-2-22,39,30,20,34,28,15,93,84,69,30.08,29.92,29.80,10,7,2,17,5,23,0.00,6,Snow,228
2013-2-23,35,26,17,21,17,14,93,77,44,30.06,30.04,30.00,10,9,5,14,5,,0.00,0,,258
2013-2-24,42,28,14,26,19,11,88,71,39,30.14,30.08,30.03,10,8,4,14,3,,0.00,0,,85
2013-2-25,46,38,31,33,29,26,82,72,50,30.09,29.95,29.65,10,9,4,21,8,20,0.05,4,Rain,61
2013-2-26,42,39,36,41,35,27,93,88,61,29.65,29.50,29.37,10,5,2,16,13,28,0.50,8,Rain,18
2013-2-27,37,35,33,34,32,30,93,88,84,29.87,29.75,29.66,10,6,2,18,13,23,0.00,8,Snow,270
2013-2-28,37,35,33,32,31,30,93,86,75,30.10,29.98,29.87,10,7,3,18,12,16,0.00,8,Snow,290